Time,TemperatureF,DewpointF,PressureIn,WindDirection,WindDirectionDegrees,WindSpeedMPH,WindSpeedGustMPH,Humidity,HourlyPrecipIn,Conditions,Clouds,dailyrainin,SoftwareType,DateUTC
2013-03-13 00:04:00,15.3,7.0,30.15,East,90,2.2,-999.0,69,-99.99,,,0.00,Acu-Link.com,2013-03-13 05:04:00,
2013-03-13 00:19:00,14.9,7.5,30.15,NNW,337,0.0,-999.0,72,-99.99,,,0.00,Acu-Link.com,2013-03-13 05:19:00,
2013-03-13 00:34:00,14.5,7.8,30.15,ESE,112,3.2,-999.0,74,-99.99,,,0.00,Acu-Link.com,2013-03-13 05:34:00,
2013-03-13 00:49:00,14.2,7.8,30.15,WSW,247,2.2,-999.0,75,-99.99,,,0.00,Acu-Link.com,2013-03-13 05:49:00,
2013-03-13 01:05:00,13.6,7.5,30.16,ESE,112,1.1,-999.0,76,-99.99,,,0.00,Acu-Link.com,2013-03-13 06:05:00,
2013-03-13 01:20:00,13.5,7.7,30.16,NNW,337,2.7,-999.0,77,-99.99,,,0.00,Acu-Link.com,2013-03-13 06:20:00,
2013-03-13 01:35:00,13.1,7.6,30.17,NNW,337,2.7,-999.0,78,-99.99,,,0.00,Acu-Link.com,2013-03-13 06:35:00,
2013-03-13 01:50:00,12.7,7.2,30.17,ESE,112,1.7,-999.0,78,-99.99,,,0.00,Acu-Link.com,2013-03-13 06:50:00,
2013-03-13 02:06:00,12.4,7.2,30.17,West,270,0.0,-999.0,79,-99.99,,,0.00,Acu-Link.com,2013-03-13 07:06:00,
2013-03-13 02:36:00,11.7,6.5,30.18,ESE,112,2.2,-999.0,79,-99.99,,,0.00,Acu-Link.com,2013-03-13 07:36:00,
2013-03-13 03:22:00,10.6,5.4,30.19,NNW,337,2.7,-999.0,79,-99.99,,,0.00,Acu-Link.com,2013-03-13 08:22:00,
2013-03-13 03:37:00,10.2,5.3,30.20,SW,225,2.2,-999.0,80,-99.99,,,0.00,Acu-Link.com,2013-03-13 08:37:00,
2013-03-13 03:53:00,10.2,5.3,30.20,ESE,112,1.1,-999.0,80,-99.99,,,0.00,Acu-Link.com,2013-03-13 08:53:00,
2013-03-13 04:08:00,10.4,5.7,30.20,North,0,0.0,-999.0,81,-99.99,,,0.00,Acu-Link.com,2013-03-13 09:08:00,
2013-03-13 04:23:00,10.2,5.6,30.21,SSW,202,0.0,-999.0,81,-99.99,,,0.00,Acu-Link.com,2013-03-13 09:23:00,
2013-03-13 04:39:00,10.0,5.4,30.21,North,0,2.7,-999.0,81,-99.99,,,0.00,Acu-Link.com,2013-03-13 09:39:00,
2013-03-13 04:54:00,9.7,5.1,30.21,North,0,1.7,-999.0,81,-99.99,,,0.00,Acu-Link.com,2013-03-13 09:54:00,
2013-03-13 05:09:00,9.0,4.1,30.21,North,0,2.2,-999.0,80,-99.99,,,0.00,Acu-Link.com,2013-03-13 10:09:00,
2013-03-13 05:24:00,8.6,3.7,30.21,North,0,0.0,-999.0,80,-99.99,,,0.00,Acu-Link.com,2013-03-13 10:24:00,
2013-03-13 05:40:00,7.9,3.0,30.23,North,0,1.7,-999.0,80,-99.99,,,0.00,Acu-Link.com,2013-03-13 10:40:00,
2013-03-13 05:55:00,7.2,2.1,30.23,North,0,0.0,-999.0,79,-99.99,,,0.00,Acu-Link.com,2013-03-13 10:55:00,
2013-03-13 06:10:00,6.1,0.7,30.23,North,0,0.0,-999.0,78,-99.99,,,0.00,Acu-Link.com,2013-03-13 11:10:00,
2013-03-13 06:25:00,5.9,0.5,30.24,North,0,0.0,-999.0,78,-99.99,,,0.00,Acu-Link.com,2013-03-13 11:25:00,
2013-03-13 06:40:00,5.4,0.1,30.24,North,0,0.0,-999.0,78,-99.99,,,0.00,Acu-Link.com,2013-03-13 11:40:00,
2013-03-13 07:11:00,4.8,-0.8,30.25,North,0,0.0,-999.0,77,-99.99,,,0.00,Acu-Link.com,2013-03-13 12:11:00,
2013-03-13 07:26:00,4.1,-1.5,30.25,North,0,0.0,-999.0,77,-99.99,,,0.00,Acu-Link.com,2013-03-13 12:26:00,
2013-03-13 07:42:00,4.1,-1.5,30.25,North,0,0.0,-999.0,77,-99.99,,,0.00,Acu-Link.com,2013-03-13 12:42:00,
2013-03-13 07:57:00,3.9,-1.7,30.26,North,0,0.0,-999.0,77,-99.99,,,0.00,Acu-Link.com,2013-03-13 12:57:00,
2013-03-13 08:12:00,3.9,-1.9,30.26,North,0,0.0,-999.0,76,-99.99,,,0.00,Acu-Link.com,2013-03-13 13:12:00,
2013-03-13 08:27:00,4.8,-1.1,30.26,North,0,0.0,-999.0,76,-99.99,,,0.00,Acu-Link.com,2013-03-13 13:27:00,
2013-03-13 08:42:00,5.5,-0.1,30.27,North,0,0.0,-999.0,77,-99.99,,,0.00,Acu-Link.com,2013-03-13 13:42:00,
2013-03-13 08:58:00,6.4,0.8,30.28,North,0,0.0,-999.0,77,-99.99,,,0.00,Acu-Link.com,2013-03-13 13:58:00,
2013-03-13 09:13:00,7.3,1.4,30.30,North,0,0.0,-999.0,76,-99.99,,,0.00,Acu-Link.com,2013-03-13 14:13:00,
2013-03-13 09:28:00,9.1,3.1,30.29,North,0,2.2,-999.0,76,-99.99,,,0.00,Acu-Link.com,2013-03-13 14:28:00,
2013-03-13 09:43:00,10.0,4.0,30.29,North,0,1.7,-999.0,76,-99.99,,,0.00,Acu-Link.com,2013-03-13 14:43:00,
2013-03-13 09:58:00,9.3,2.4,30.30,North,0,2.2,-999.0,73,-99.99,,,0.00,Acu-Link.com,2013-03-13 14:58:00,
2013-03-13 10:14:00,10.0,3.4,30.30,ESE,112,2.2,-999.0,74,-99.99,,,0.00,Acu-Link.com,2013-03-13 15:14:00,
2013-03-13 10:29:00,11.7,5.0,30.30,ESE,112,2.2,-999.0,74,-99.99,,,0.00,Acu-Link.com,2013-03-13 15:29:00,
2013-03-13 10:44:00,12.7,5.7,30.30,ESE,112,2.7,-999.0,73,-99.99,,,0.00,Acu-Link.com,2013-03-13 15:44:00,
2013-03-13 11:00:00,13.5,6.2,30.29,ENE,67,3.2,-999.0,72,-99.99,,,0.00,Acu-Link.com,2013-03-13 16:00:00,
2013-03-13 11:15:00,16.0,8.3,30.30,SW,225,2.7,-999.0,71,-99.99,,,0.00,Acu-Link.com,2013-03-13 16:15:00,
2013-03-13 11:30:00,17.8,8.7,30.30,SW,225,2.7,-999.0,67,-99.99,,,0.00,Acu-Link.com,2013-03-13 16:30:00,
2013-03-13 11:45:00,19.9,9.7,30.30,West,270,1.7,-999.0,64,-99.99,,,0.00,Acu-Link.com,2013-03-13 16:45:00,
2013-03-13 12:01:00,21.2,9.9,30.30,SW,225,2.2,-999.0,61,-99.99,,,0.00,Acu-Link.com,2013-03-13 17:01:00,
2013-03-13 12:31:00,23.9,11.3,30.30,WSW,247,0.0,-999.0,58,-99.99,,,0.00,Acu-Link.com,2013-03-13 17:31:00,
2013-03-13 13:02:00,26.2,12.3,30.29,NNE,22,2.7,-999.0,55,-99.99,,,0.00,Acu-Link.com,2013-03-13 18:02:00,
2013-03-13 13:17:00,28.0,13.1,30.29,SSW,202,1.1,-999.0,53,-99.99,,,0.00,Acu-Link.com,2013-03-13 18:17:00,
2013-03-13 13:32:00,28.9,13.1,30.28,West,270,1.1,-999.0,51,-99.99,,,0.00,Acu-Link.com,2013-03-13 18:32:00,
2013-03-13 13:48:00,29.1,12.8,30.28,NW,315,1.7,-999.0,50,-99.99,,,0.00,Acu-Link.com,2013-03-13 18:48:00,
2013-03-13 14:03:00,29.8,13.5,30.27,SSW,202,2.2,-999.0,50,-99.99,,,0.00,Acu-Link.com,2013-03-13 19:03:00,
2013-03-13 14:18:00,31.3,13.4,30.27,SW,225,2.2,-999.0,47,-99.99,,,0.00,Acu-Link.com,2013-03-13 19:18:00,
2013-03-13 14:34:00,32.0,13.1,30.26,SW,225,3.7,-999.0,45,-99.99,,,0.00,Acu-Link.com,2013-03-13 19:34:00,
2013-03-13 14:49:00,32.7,12.7,30.26,ESE,112,2.2,-999.0,43,-99.99,,,0.00,Acu-Link.com,2013-03-13 19:49:00,
2013-03-13 15:04:00,30.4,11.6,30.25,SW,225,2.7,-999.0,45,-99.99,,,0.00,Acu-Link.com,2013-03-13 20:04:00,
2013-03-13 15:20:00,30.7,11.9,30.25,SW,225,2.2,-999.0,45,-99.99,,,0.00,Acu-Link.com,2013-03-13 20:20:00,
2013-03-13 15:35:00,30.2,11.9,30.24,ESE,112,2.2,-999.0,46,-99.99,,,0.00,Acu-Link.com,2013-03-13 20:35:00,
2013-03-13 15:50:00,30.6,14.2,30.23,West,270,1.1,-999.0,50,-99.99,,,0.00,Acu-Link.com,2013-03-13 20:50:00,
2013-03-13 16:05:00,30.4,14.5,30.23,WSW,247,0.0,-999.0,51,-99.99,,,0.01,Acu-Link.com,2013-03-13 21:05:00,
2013-03-13 16:36:00,30.6,13.3,30.24,WSW,247,1.1,-999.0,48,-99.99,,,0.03,Acu-Link.com,2013-03-13 21:36:00,
2013-03-13 16:51:00,33.3,14.8,30.23,SW,225,0.0,-999.0,46,-99.99,,,0.04,Acu-Link.com,2013-03-13 21:51:00,
2013-03-13 17:06:00,33.6,14.6,30.22,SW,225,2.7,-999.0,45,-99.99,,,0.05,Acu-Link.com,2013-03-13 22:06:00,
2013-03-13 17:22:00,32.5,14.5,30.21,SW,225,0.0,-999.0,47,-99.99,,,0.05,Acu-Link.com,2013-03-13 22:22:00,
2013-03-13 17:37:00,31.3,13.9,30.21,SW,225,2.2,-999.0,48,-99.99,,,0.05,Acu-Link.com,2013-03-13 22:37:00,
2013-03-13 17:52:00,30.4,14.0,30.22,SW,225,1.7,-999.0,50,-99.99,,,0.05,Acu-Link.com,2013-03-13 22:52:00,
2013-03-13 18:08:00,30.0,14.1,30.21,SSW,202,2.2,-999.0,51,-99.99,,,0.05,Acu-Link.com,2013-03-13 23:08:00,
2013-03-13 18:23:00,28.9,13.5,30.21,SSW,202,2.2,-999.0,52,-99.99,,,0.05,Acu-Link.com,2013-03-13 23:23:00,
2013-03-13 18:38:00,27.9,13.4,30.21,SW,225,2.2,-999.0,54,-99.99,,,0.05,Acu-Link.com,2013-03-13 23:38:00,
2013-03-13 18:53:00,26.1,12.2,30.22,SW,225,1.7,-999.0,55,-99.99,,,0.05,Acu-Link.com,2013-03-13 23:53:00,
2013-03-13 19:09:00,25.3,12.2,30.21,SW,225,1.1,-999.0,57,-99.99,,,0.05,Acu-Link.com,2013-03-14 00:09:00,
2013-03-13 19:24:00,23.7,12.2,30.21,West,270,0.0,-999.0,61,-99.99,,,0.05,Acu-Link.com,2013-03-14 00:24:00,
2013-03-13 19:39:00,23.0,11.9,30.21,SW,225,0.0,-999.0,62,-99.99,,,0.05,Acu-Link.com,2013-03-14 00:39:00,
2013-03-13 19:55:00,22.3,12.0,30.21,West,270,0.0,-999.0,64,-99.99,,,0.05,Acu-Link.com,2013-03-14 00:55:00,
2013-03-13 20:10:00,21.7,11.4,30.21,SW,225,0.0,-999.0,64,-99.99,,,0.05,Acu-Link.com,2013-03-14 01:10:00,
2013-03-13 20:25:00,21.4,12.2,30.20,WSW,247,0.0,-999.0,67,-99.99,,,0.05,Acu-Link.com,2013-03-14 01:25:00,
2013-03-13 20:41:00,21.2,12.3,30.19,WSW,247,0.0,-999.0,68,-99.99,,,0.05,Acu-Link.com,2013-03-14 01:41:00,
2013-03-13 21:11:00,21.0,12.5,30.19,WNW,292,0.0,-999.0,69,-99.99,,,0.05,Acu-Link.com,2013-03-14 02:11:00,
2013-03-13 21:26:00,21.0,12.5,30.19,SW,225,0.0,-999.0,69,-99.99,,,0.05,Acu-Link.com,2013-03-14 02:26:00,
2013-03-13 21:42:00,21.0,12.5,30.18,SW,225,1.1,-999.0,69,-99.99,,,0.05,Acu-Link.com,2013-03-14 02:42:00,
2013-03-13 21:57:00,21.0,12.1,30.18,SW,225,0.0,-999.0,68,-99.99,,,0.05,Acu-Link.com,2013-03-14 02:57:00,
2013-03-13 22:12:00,20.8,11.6,30.17,SW,225,0.0,-999.0,67,-99.99,,,0.05,Acu-Link.com,2013-03-14 03:12:00,
2013-03-13 22:28:00,20.7,11.5,30.17,SW,225,1.7,-999.0,67,-99.99,,,0.05,Acu-Link.com,2013-03-14 03:28:00,
2013-03-13 22:43:00,19.9,10.7,30.16,West,270,0.0,-999.0,67,-99.99,,,0.05,Acu-Link.com,2013-03-14 03:43:00,
2013-03-13 22:58:00,19.6,10.8,30.16,WSW,247,0.0,-999.0,68,-99.99,,,0.05,Acu-Link.com,2013-03-14 03:58:00,
2013-03-13 23:14:00,19.2,11.0,30.17,WSW,247,0.0,-999.0,70,-99.99,,,0.00,Acu-Link.com,2013-03-14 04:14:00,
2013-03-13 23:29:00,19.0,11.2,30.16,WSW,247,0.0,-999.0,71,-99.99,,,0.00,Acu-Link.com,2013-03-14 04:29:00,
2013-03-13 23:44:00,18.7,11.2,30.15,SW,225,0.0,-999.0,72,-99.99,,,0.00,Acu-Link.com,2013-03-14 04:44:00,
2013-03-13 23:59:00,18.5,11.0,30.16,SW,225,0.0,-999.0,72,-99.99,,,0.00,Acu-Link.com,2013-03-14 04:59:00,